Flag for Germany Weather past 2 weeks in Aurich, Lower Saxony, Germany

Now
57 °F

Passing clouds.


Feels Like: 54 °F
Forecast: 51 / 61 °F
Wind: 13 mph from Southwest

Location: Wittmundhaven

Current Time: Sep 3, 2015 at 10:57:42 AM

Latest Report: Sep 3, 2015 at 10:20 AM


Visibility: N/A

Pressure: 29.89 "Hg

Humidity: 77%

Dew point: 50 °F

Location of AurichLocation

Historic Weather in Aurich — Graph

°F

Aurich temperature yesterday

Maximum temperature yesterday: 64 °F (at 1:20 PM)
Minimum temperature yesterday: 52 °F (at 11:20 PM)
Average temperature yesterday: 58 °F

Past Weeks' High & Low Weather Summary

 TemperatureHumidityPressure
High77 °F (Aug 21, 3:20 PM)100% (Aug 20, 3:20 AM)30.27 "Hg (Aug 20, 3:20 AM)
Low48 °F (Sep 3, 4:20 AM)34% (Aug 22, 1:20 PM)29.50 "Hg (Aug 24, 6:20 PM)
Average63 °F79%29.94 "Hg
* Reported Aug 19 9:20 AM — Sep 3 9:20 AM, Aurich, Weather by CustomWeather, © 2015

Note: Actual official high and low records may vary slightly from our data, if they occured in-between our weather recording intervals... More about our weather records

Advertising

Aurich weather history for previous 24 hours

 ConditionsComfort  
Time TempWeatherWind HumidityBarometerVisibility
9:20 AM
Thu, Sep 3
55 °FPassing clouds.9 mph82%29.89 "HgN/A
7:20 AM48 °FPassing clouds.8 mph94%29.92 "HgN/A
6:20 AM48 °FPassing clouds.7 mph94%29.89 "HgN/A
5:20 AM48 °FPassing clouds.7 mph94%29.89 "HgN/A
4:20 AM48 °FCool.7 mph94%29.89 "HgN/A
3:20 AM50 °FCool.8 mph94%29.92 "HgN/A
2:20 AM50 °FCool.7 mph94%29.92 "HgN/A
1:20 AM50 °FCool.7 mph94%29.92 "HgN/A
12:20 AM50 °FCool.6 mph94%29.92 "HgN/A
11:20 PM
Wed, Sep 2
52 °FPassing clouds.6 mph88%29.92 "HgN/A
10:20 PM54 °FPassing clouds.6 mph82%29.95 "HgN/A
9:20 PM54 °FPassing clouds.6 mph88%29.95 "HgN/A
8:20 PM57 °FPassing clouds.5 mph77%29.92 "HgN/A
7:20 PM61 °FScattered clouds.8 mph68%29.92 "HgN/A
6:20 PM59 °FScattered clouds.7 mph82%29.92 "HgN/A
5:20 PM55 °FThunderstorms. Scattered clouds.7 mph88%29.92 "HgN/A
4:20 PM61 °FSprinkles. Scattered clouds.10 mph63%29.92 "HgN/A
3:20 PM63 °FScattered clouds.17 mph64%29.92 "HgN/A
2:20 PM64 °FScattered clouds.16 mph60%29.92 "HgN/A
1:20 PM64 °FScattered clouds.20 mph60%29.92 "HgN/A
12:20 PM63 °FScattered clouds.16 mph64%29.92 "HgN/A
11:20 AM63 °FScattered clouds.20 mph64%29.92 "HgN/A
10:20 AM61 °FPassing clouds.17 mph72%29.92 "HgN/A
Weather by CustomWeather, © 2015

See weather overviewHow to use our weather pages